Wind_Speed
17 17 19 20 21 20 19 19 19 19 18 17 16 16 16 16 16 16 16 16 15 14 13 14 14 13 13 14 14 14 13 14 15 14 16 17 17 19 20 21 20 21 21
17 17 19 18 19 20 21 20 21 22 21 20 20 19 19 19 19 18 18 18 16 15 14 14 14 13 13 14 15 15 14 14 14 14 15 15 17 18 20 20 20 22 21
18 19 19 18 17 20 22 21 21 22 24 25 25 24 24 22 21 20 19 19 18 17 16 15 14 13 14 15 16 15 16 16 16 16 17 18 18 19 20 21 21 21 23
19 20 19 17 16 19 21 22 22 22 22 23 24 24 23 23 22 22 21 20 20 19 17 14 14 14 16 16 17 18 18 19 19 20 18 22 22 23 23 24 25 25 24
21 20 18 18 19 20 21 22 22 22 22 23 22 22 22 23 23 23 22 21 21 20 18 17 15 15 14 15 17 16 17 17 18 19 20 22 24 24 24 25 26 26 27
21 20 19 20 22 22 22 22 22 23 23 22 23 23 23 24 24 24 23 23 21 20 19 18 18 17 18 18 20 19 18 19 21 21 24 24 24 25 25 26 27 27 26
23 23 22 22 23 23 24 22 21 24 25 26 26 26 25 26 26 25 23 23 21 19 19 18 18 17 17 17 17 16 17 19 22 22 25 28 28 27 25 24 24 23 24
24 25 24 23 24 25 26 26 25 23 23 24 25 25 25 26 26 24 23 22 20 20 18 18 17 17 16 16 15 15 19 22 26 28 29 30 31 33 32 29 27 26 26
26 26 25 25 24 25 26 26 25 25 22 21 22 21 21 21 23 23 22 22 20 19 18 17 17 17 17 16 18 19 23 24 24 25 24 24 23 25 29 31 29 27 26
26 27 27 25 24 25 25 25 25 26 24 22 21 19 18 18 17 19 21 22 22 21 19 19 19 19 20 20 21 23 25 26 24 23 24 25 22 21 21 25 27 25 25
30 29 28 28 27 25 26 26 26 26 27 22 22 20 19 18 16 17 19 20 23 24 22 22 23 24 24 26 26 26 26 26 24 26 25 25 23 21 20 21 24 25 25
34 33 32 31 29 28 28 27 27 25 26 27 24 23 21 20 18 17 18 19 22 24 26 26 27 28 28 30 31 31 32 30 28 28 29 27 26 27 24 23 22 22 23
31 32 34 35 34 33 31 31 29 28 27 27 27 26 24 23 21 18 21 22 22 24 27 29 30 30 32 32 34 34 34 34 32 31 31 32 29 29 29 28 27 27 27
31 33 32 32 35 35 35 35 33 31 31 29 28 28 27 26 23 21 20 22 25 24 24 26 28 29 31 33 35 36 37 35 35 36 33 32 32 31 32 33 31 31 30
32 31 32 33 33 33 37 37 34 32 34 32 30 30 31 29 26 24 25 23 26 27 26 26 25 26 29 31 32 34 35 36 36 37 36 39 34 32 32 33 35 33 32
31 30 28 33 34 33 33 37 35 33 35 34 33 33 32 32 30 28 26 25 26 28 29 29 30 31 32 33 32 33 32 34 34 35 38 37 35 33 33 33 32 33 31
33 32 26 29 33 30 31 32 35 35 34 32 35 35 34 33 31 30 28 27 27 29 30 30 31 33 34 33 33 32 32 31 32 32 33 34 33 31 31 32 31 31 31
33 34 30 28 29 30 27 30 33 37 33 31 33 31 33 34 34 31 30 30 30 30 31 31 33 34 34 35 35 33 32 32 31 32 32 31 31 31 31 31 32 33 34
33 34 35 31 29 30 29 29 28 32 34 34 33 30 30 34 35 34 34 33 34 32 32 32 34 35 36 36 36 35 33 32 32 32 32 32 34 34 36 38 37 39 41
36 38 39 38 33 30 33 29 27 26 30 36 37 33 31 33 32 33 34 35 36 35 33 35 37 36 37 36 36 36 36 34 34 34 36 39 42 43 42 42 43 43 43
40 41 43 43 40 33 32 33 31 32 32 33 32 35 36 36 32 33 33 33 35 37 36 38 39 39 38 37 37 36 37 39 40 43 45 46 44 45 47 46 47 47 46
42 42 42 44 43 40 35 37 38 35 36 32 32 32 33 34 33 35 35 34 36 38 39 39 40 39 38 38 39 38 38 41 43 46 46 48 49 47 47 47 47 48 48
45 44 43 43 42 42 42 42 44 39 36 35 35 36 37 35 31 31 33 34 34 37 40 39 38 39 40 39 40 41 41 42 43 46 48 50 50 50 49 47 49 49 49
49 47 48 48 46 43 43 47 46 43 43 39 38 40 41 37 33 34 32 32 33 35 37 38 38 39 39 40 41 41 43 44 46 47 50 51 50 49 49 49 49 50 53
55 54 51 52 51 49 47 46 46 47 46 43 43 41 44 39 36 37 35 32 32 34 36 37 38 40 40 40 40 41 43 45 46 46 47 47 47 48 48 50 52 54 56
62 61 61 56 55 53 50 48 47 45 47 46 46 45 44 43 39 39 37 34 35 35 35 37 38 40 40 40 41 43 44 46 46 45 45 44 45 46 50 53 55 56 56
Wind_Direction
249 254 255 256 258 259 260 258 255 254 257 262 264 270 273 273 273 270 268 266 268 266 262 260 258 259 265 269 273 272 278 278 281 281 276 275 276 274 274 274 277 278 279
258 258 261 258 256 257 258 259 255 254 256 257 260 265 268 272 274 274 273 268 263 259 261 264 264 267 270 272 274 278 283 285 286 282 277 280 276 276 276 276 277 279 279
260 258 259 267 259 259 259 257 258 257 256 256 258 261 264 265 265 268 267 267 263 260 257 261 265 268 271 272 274 280 283 285 283 281 281 280 278 278 277 280 280 278 279
262 260 260 261 263 260 263 263 260 260 259 261 261 261 261 263 262 261 262 260 259 257 256 261 267 270 271 273 275 278 278 280 281 281 281 284 283 281 283 284 282 279 278
262 262 262 258 257 254 257 262 266 265 262 261 259 260 262 263 263 264 262 259 259 257 255 258 261 263 266 273 274 275 277 280 281 282 283 279 281 284 283 282 282 281 281
264 262 260 258 260 257 252 254 259 265 266 266 262 261 261 262 261 261 259 258 256 255 256 258 259 261 266 269 274 277 282 283 285 286 286 282 281 282 282 281 280 281 281
260 262 259 257 261 266 259 253 262 260 261 261 264 262 263 263 260 257 256 255 254 254 256 257 260 262 265 269 273 279 282 288 289 288 284 285 282 279 276 277 277 278 280
252 257 259 259 257 265 270 273 279 281 276 269 266 263 264 265 264 258 256 253 252 254 254 256 258 261 263 266 268 276 285 291 292 292 289 287 283 279 277 276 276 279 279
253 258 262 264 264 268 274 280 283 285 284 282 274 269 269 271 270 267 264 260 258 257 257 255 254 251 249 256 265 276 285 293 299 301 295 299 300 293 279 274 271 274 280
253 256 259 261 265 269 274 277 280 283 284 278 272 270 268 271 269 269 270 268 265 264 262 256 248 246 249 257 266 275 282 289 297 296 297 294 304 309 295 276 274 274 273
252 254 256 259 262 266 270 275 276 279 279 276 270 268 269 268 273 275 272 270 270 265 258 256 251 251 255 260 265 271 274 281 289 294 294 291 292 295 297 291 279 274 278
249 249 252 257 262 264 266 268 270 269 273 276 267 267 265 269 273 277 284 281 276 270 266 259 258 260 261 265 270 273 275 274 280 286 289 290 287 281 280 282 281 280 281
256 253 253 254 256 261 263 264 267 268 268 271 270 267 268 268 272 280 284 284 280 277 272 267 265 265 267 269 272 274 275 276 275 278 285 287 288 282 277 276 278 280 280
260 261 259 257 255 257 262 264 264 267 267 266 269 271 269 272 278 284 285 289 285 283 279 274 271 271 273 275 275 275 272 271 274 277 280 286 285 286 280 275 277 278 280
258 261 266 262 258 253 254 259 262 264 264 263 267 270 273 274 279 285 286 289 286 285 284 285 284 284 285 284 282 282 280 276 273 275 277 280 281 282 283 277 274 278 280
257 254 255 265 268 265 258 255 259 263 265 267 266 269 271 275 280 281 283 286 283 282 283 286 288 289 287 287 287 286 283 281 278 276 275 280 281 281 279 276 275 277 278
252 256 248 255 267 272 270 265 259 260 262 265 266 268 273 276 278 279 282 282 283 286 288 290 289 288 288 289 291 287 287 288 286 284 282 280 280 280 275 274 277 279 280
253 257 253 248 261 271 272 268 263 260 262 263 264 267 272 275 278 282 282 284 284 286 288 289 289 289 288 288 291 287 284 287 288 285 280 278 280 279 277 277 279 280 281
254 254 259 257 250 259 264 264 265 265 262 263 265 266 269 272 275 280 282 283 283 285 288 291 292 290 288 286 289 288 281 284 283 281 281 282 282 282 283 282 280 280 283
250 251 253 255 255 249 258 259 262 264 264 263 265 269 269 272 274 275 278 281 283 284 288 294 292 290 289 285 288 289 279 280 281 280 281 282 286 288 282 283 282 281 281
249 251 251 252 251 245 248 258 259 260 261 262 268 269 268 269 273 276 277 278 281 283 288 291 293 291 289 285 286 289 281 277 279 281 282 283 284 288 287 284 283 282 282
249 250 251 250 252 250 240 246 253 259 261 263 265 269 271 271 272 276 277 279 279 280 285 288 290 290 289 287 285 287 285 281 280 282 284 285 287 286 286 286 285 284 285
251 252 252 251 248 250 246 243 246 253 260 260 262 265 268 273 279 280 279 275 277 280 283 288 290 291 289 289 288 286 287 286 286 286 287 287 286 286 285 284 283 283 284
257 254 252 249 248 248 250 249 249 251 255 258 261 262 266 269 275 279 281 278 278 280 284 289 290 292 290 289 288 289 289 289 289 289 289 289 289 287 287 287 287 287 288
255 256 253 253 250 248 247 250 251 252 253 254 256 260 264 266 270 275 280 282 280 281 287 290 291 291 292 292 291 292 291 290 290 291 292 293 293 292 292 291 290 289 289
255 254 256 253 251 249 248 249 251 250 252 253 255 259 264 265 268 272 277 280 282 282 283 288 291 295 294 294 294 294 293 292 292 292 291 291 289 290 290 291 291 291 290
Height
5869 5870 5871 5872 5873 5874 5873 5874 5875 5876 5877 5878 5878 5879 5880 5880 5879 5878 5877 5877 5876 5876 5875 5874 5874 5875 5875 5875 5875 5875 5875 5875 5874 5874 5873 5873 5873 5872 5871 5871 5871 5870 5870
5867 5868 5868 5870 5870 5871 5870 5872 5872 5873 5874 5875 5875 5876 5876 5876 5877 5876 5875 5875 5874 5874 5873 5873 5872 5872 5872 5872 5872 5872 5873 5873 5872 5871 5870 5870 5868 5868 5868 5867 5867 5866 5866
5865 5865 5866 5867 5868 5869 5868 5869 5870 5870 5870 5871 5871 5872 5872 5872 5872 5872 5872 5872 5871 5871 5871 5871 5870 5869 5869 5870 5869 5869 5869 5869 5869 5868 5868 5866 5866 5865 5865 5864 5864 5863 5863
5861 5862 5864 5865 5866 5865 5866 5866 5866 5866 5866 5867 5867 5868 5868 5868 5868 5868 5868 5868 5868 5868 5868 5867 5867 5867 5867 5866 5866 5866 5866 5865 5865 5865 5866 5862 5863 5863 5862 5861 5861 5861 5860
5858 5859 5861 5862 5862 5862 5862 5862 5863 5863 5863 5863 5863 5864 5864 5864 5864 5865 5865 5865 5865 5865 5864 5864 5864 5863 5863 5863 5863 5863 5863 5863 5862 5862 5861 5861 5859 5859 5857 5857 5857 5856 5856
5854 5855 5857 5858 5858 5858 5858 5859 5859 5860 5860 5860 5860 5860 5860 5860 5860 5860 5860 5860 5861 5861 5861 5860 5860 5859 5859 5859 5860 5860 5859 5859 5858 5858 5857 5856 5856 5854 5853 5853 5852 5852 5851
5850 5852 5852 5853 5854 5854 5854 5855 5856 5856 5856 5856 5856 5856 5856 5856 5856 5856 5856 5857 5857 5857 5857 5857 5857 5856 5856 5856 5856 5856 5855 5855 5855 5856 5852 5851 5851 5850 5848 5848 5847 5847 5847
5846 5846 5848 5849 5850 5850 5851 5851 5852 5853 5853 5852 5852 5852 5852 5852 5852 5853 5853 5854 5853 5854 5854 5854 5853 5853 5853 5853 5853 5853 5853 5852 5852 5851 5849 5846 5844 5844 5844 5842 5842 5842 5841
5842 5843 5844 5846 5847 5847 5846 5847 5848 5848 5849 5848 5848 5848 5848 5848 5849 5850 5850 5851 5851 5851 5851 5850 5850 5850 5850 5850 5850 5849 5848 5848 5847 5846 5844 5842 5840 5837 5837 5837 5836 5836 5837
5838 5839 5840 5840 5841 5842 5843 5842 5843 5843 5843 5844 5844 5844 5844 5845 5845 5845 5846 5847 5847 5847 5847 5847 5846 5847 5846 5846 5846 5845 5844 5844 5844 5841 5839 5838 5836 5834 5832 5830 5831 5831 5830
5831 5833 5834 5835 5836 5838 5838 5838 5839 5839 5839 5840 5840 5841 5841 5841 5842 5841 5841 5841 5842 5842 5842 5842 5843 5842 5842 5842 5842 5841 5840 5839 5839 5837 5834 5832 5832 5831 5829 5826 5826 5826 5825
5825 5828 5828 5830 5831 5833 5833 5833 5833 5835 5835 5835 5836 5836 5836 5837 5837 5837 5837 5837 5837 5837 5838 5837 5837 5838 5837 5837 5836 5836 5835 5834 5833 5831 5830 5828 5827 5826 5824 5823 5821 5821 5820
5816 5820 5822 5825 5826 5826 5827 5828 5829 5829 5830 5830 5831 5831 5832 5832 5833 5833 5832 5832 5832 5832 5832 5832 5832 5831 5831 5831 5830 5829 5829 5828 5827 5825 5823 5822 5821 5820 5819 5817 5816 5816 5814
5811 5810 5815 5818 5820 5822 5821 5822 5824 5824 5824 5825 5825 5826 5826 5827 5827 5828 5828 5827 5826 5826 5826 5826 5826 5825 5825 5824 5823 5822 5821 5822 5820 5818 5816 5816 5815 5813 5812 5811 5809 5809 5807
5805 5806 5806 5808 5812 5815 5816 5816 5818 5819 5818 5819 5820 5820 5820 5821 5823 5823 5823 5822 5821 5820 5820 5820 5819 5819 5818 5816 5815 5814 5813 5812 5812 5810 5809 5809 5807 5806 5805 5803 5802 5801 5800
5797 5800 5802 5801 5801 5805 5808 5810 5811 5813 5812 5813 5814 5814 5815 5816 5817 5817 5817 5817 5816 5815 5815 5814 5813 5812 5811 5810 5807 5806 5805 5804 5803 5802 5801 5800 5799 5798 5796 5796 5794 5793 5791
5789 5790 5796 5796 5795 5797 5800 5802 5803 5803 5806 5807 5808 5808 5810 5810 5811 5810 5811 5810 5809 5808 5808 5808 5807 5806 5804 5802 5800 5799 5797 5797 5796 5795 5794 5792 5791 5789 5788 5788 5785 5784 5783
5784 5783 5786 5790 5790 5791 5792 5793 5794 5794 5799 5800 5801 5802 5804 5804 5804 5805 5804 5804 5803 5802 5801 5800 5800 5798 5797 5795 5793 5792 5791 5789 5789 5787 5786 5785 5783 5782 5781 5778 5776 5775 5773
5777 5779 5778 5781 5784 5784 5784 5786 5788 5787 5791 5793 5794 5796 5798 5796 5798 5798 5797 5796 5795 5795 5794 5793 5792 5791 5789 5788 5786 5784 5783 5782 5781 5780 5778 5777 5776 5774 5772 5769 5767 5765 5763
5768 5768 5769 5771 5776 5779 5776 5778 5780 5781 5782 5783 5785 5789 5790 5789 5790 5790 5790 5790 5788 5788 5787 5786 5784 5783 5781 5779 5778 5776 5775 5774 5772 5772 5770 5769 5766 5765 5763 5759 5756 5754 5752
5758 5759 5760 5761 5765 5770 5773 5772 5772 5774 5775 5775 5778 5779 5781 5781 5782 5782 5782 5782 5781 5780 5779 5778 5776 5774 5772 5770 5769 5767 5766 5764 5764 5762 5761 5759 5756 5753 5749 5747 5745 5743 5740
5748 5750 5751 5752 5755 5759 5764 5766 5763 5765 5766 5769 5771 5772 5772 5772 5774 5773 5773 5774 5773 5772 5771 5770 5767 5766 5764 5761 5760 5759 5757 5756 5754 5752 5750 5747 5744 5741 5738 5735 5732 5730 5727
5739 5740 5742 5744 5746 5749 5752 5754 5755 5757 5759 5761 5763 5763 5763 5764 5766 5766 5765 5765 5765 5764 5763 5762 5759 5757 5755 5753 5751 5750 5748 5746 5744 5741 5738 5735 5732 5729 5725 5722 5719 5716 5713
5727 5729 5731 5733 5735 5739 5740 5742 5746 5749 5749 5753 5753 5754 5755 5757 5758 5758 5757 5757 5757 5756 5755 5753 5751 5749 5747 5744 5742 5740 5737 5735 5732 5730 5727 5723 5719 5715 5712 5708 5705 5702 5699
5714 5716 5718 5719 5723 5728 5730 5732 5736 5737 5739 5743 5743 5744 5745 5747 5748 5749 5748 5749 5748 5748 5746 5744 5743 5740 5738 5736 5733 5730 5727 5724 5720 5718 5715 5710 5705 5701 5698 5694 5691 5687 5683
5700 5703 5704 5707 5709 5714 5718 5721 5724 5728 5730 5732 5733 5734 5735 5738 5739 5740 5740 5740 5739 5738 5738 5736 5734 5732 5729 5726 5723 5719 5716 5712 5709 5706 5704 5700 5698 5692 5686 5680 5676 5672 5669